Daytona Beach Weather Center

Moon Phase Calendar



Online Cameras

 


      

Current Conditions in Daytona Beach
10/20/2020 6:41:11 PM

80°F
Feels Like 84
Clouds
Humidity
78%
Pressure
30"
Wind
9.2 mph (E)
Dew Point
73°F
UV Index
7/10 (High)
Visibility
6 mi

Hourly Forecast

Date & Time Tue, Oct 20
6:00 PM
Tue, Oct 20
7:00 PM
Tue, Oct 20
8:00 PM
Tue, Oct 20
9:00 PM
Tue, Oct 20
10:00 PM
Tue, Oct 20
11:00 PM
Wed, Oct 21
12:00 AM
Wed, Oct 21
1:00 AM
Wed, Oct 21
2:00 AM
Wed, Oct 21
3:00 AM
Wed, Oct 21
4:00 AM
Wed, Oct 21
5:00 AM
Wed, Oct 21
6:00 AM
Wed, Oct 21
7:00 AM
Wed, Oct 21
8:00 AM
Wed, Oct 21
9:00 AM
Wed, Oct 21
10:00 AM
Wed, Oct 21
11:00 AM
Wed, Oct 21
12:00 PM
Wed, Oct 21
1:00 PM
Wed, Oct 21
2:00 PM
Wed, Oct 21
3:00 PM
Wed, Oct 21
4:00 PM
Wed, Oct 21
5:00 PM
Wed, Oct 21
6:00 PM
Wed, Oct 21
7:00 PM
Wed, Oct 21
8:00 PM
Wed, Oct 21
9:00 PM
Wed, Oct 21
10:00 PM
Wed, Oct 21
11:00 PM
Thu, Oct 22
12:00 AM
Thu, Oct 22
1:00 AM
Thu, Oct 22
2:00 AM
Thu, Oct 22
3:00 AM
Thu, Oct 22
4:00 AM
Thu, Oct 22
5:00 AM
Thu, Oct 22
6:00 AM
Thu, Oct 22
7:00 AM
Thu, Oct 22
8:00 AM
Thu, Oct 22
9:00 AM
Thu, Oct 22
10:00 AM
Thu, Oct 22
11:00 AM
Thu, Oct 22
12:00 PM
Thu, Oct 22
1:00 PM
Thu, Oct 22
2:00 PM
Thu, Oct 22
3:00 PM
Thu, Oct 22
4:00 PM
Thu, Oct 22
5:00 PM
Condition
Clouds

Rain

Clouds

Clouds

Clouds

Clouds

Clouds

Clouds

Clouds

Rain

Rain

Rain

Clouds

Rain

Clouds

Clouds

Rain

Rain

Rain

Rain

Rain

Rain

Rain

Clouds

Rain

Rain

Rain

Rain

Rain

Rain

Rain

Rain

Rain

Rain

Rain

Rain

Rain

Rain

Rain

Rain

Rain

Rain

Rain

Rain

Clouds

Rain

Clouds

Clouds
Temperature 80°F79°F79°F79°F79°F79°F79°F79°F79°F78°F78°F79°F78°F78°F78°F79°F80°F80°F79°F77°F77°F78°F78°F78°F78°F78°F77°F77°F77°F77°F77°F77°F77°F76°F76°F76°F77°F77°F77°F77°F78°F79°F80°F81°F81°F81°F81°F80°F
Feels Like 82°F81°F80°F79°F79°F80°F80°F81°F81°F80°F80°F79°F81°F79°F79°F80°F80°F80°F79°F79°F80°F80°F81°F81°F80°F79°F79°F79°F78°F78°F78°F78°F77°F77°F77°F77°F77°F78°F78°F77°F77°F79°F80°F81°F81°F81°F80°F80°F
Cloudiness 90%95%98%99%100%100%100%100%100%100%100%100%100%100%100%96%98%98%99%99%99%100%100%100%100%100%100%100%100%92%94%94%94%58%69%80%80%70%69%69%50%43%37%34%40%54%48%38%
Visibility 6 mi6 mi6 mi6 mi6 mi6 mi6 mi6 mi6 mi6 mi6 mi6 mi6 mi6 mi6 mi6 mi6 mi6 mi6 mi5 mi6 mi6 mi6 mi6 mi6 mi6 mi6 mi6 mi6 mi6 mi6 mi6 mi6 mi6 mi4 mi3 mi4 mi6 mi6 mi6 mi6 mi6 mi6 mi6 mi6 mi6 mi6 mi6 mi
Precipitation 76%72%68%41%25%28%28%28%24%33%33%28%29%33%41%61%76%83%87%91%91%78%66%66%67%72%79%67%59%59%60%61%65%72%75%83%91%94%91%67%64%88%92%92%88%59%47%48%
Humidity 78%80%80%79%79%79%80%80%81%79%78%78%78%79%80%77%74%70%72%75%75%74%75%77%78%77%76%76%77%78%78%80%80%79%79%80%80%79%80%79%77%74%72%69%69%69%69%71%
Dew Point 73°F73°F72°F72°F72°F72°F72°F72°F72°F71°F71°F71°F71°F71°F71°F71°F71°F70°F69°F69°F69°F69°F70°F70°F71°F70°F69°F69°F70°F70°F70°F71°F70°F70°F70°F70°F70°F70°F71°F70°F70°F70°F70°F70°F70°F70°F70°F70°F
Pressure 30"30"30"30.03"30.03"30.03"30.03"30.03"30.03"30"30"30"30"30.03"30.03"30.06"30.06"30.06"30.06"30.06"30.06"30.03"30.03"30"30"30.03"30.03"30.06"30.06"30.06"30.03"30.03"30.03"30.03"30.03"30"30.03"30.03"30.03"30.06"30.06"30.06"30.06"30.06"30.03"30.03"30.03"30.03"
Wind Speed 11.7 mph12.9 mph13.4 mph14.4 mph13.7 mph12.9 mph13.6 mph11.4 mph11.7 mph12.6 mph12.2 mph13.3 mph9.8 mph13.8 mph13.4 mph12.6 mph13.1 mph12.6 mph12.3 mph9.8 mph6.7 mph8.7 mph7.8 mph8.9 mph9.7 mph10.5 mph10.3 mph9.8 mph11.9 mph11.5 mph12.6 mph12.8 mph13 mph12.3 mph12.2 mph13 mph13.5 mph11.4 mph12 mph12.8 mph13.6 mph13.6 mph13.6 mph13.5 mph13.2 mph13.8 mph13.2 mph13 mph
Wind
Direction
77°
ENE
74°
ENE
77°
ENE
78°
ENE
84°
E
90°
E
87°
E
85°
E
97°
E
102°
ESE
100°
E
97°
E
91°
E
84°
E
80°
E
79°
E
90°
E
97°
E
91°
E
73°
ENE
78°
ENE
93°
E
91°
E
81°
E
75°
ENE
92°
E
96°
E
94°
E
94°
E
91°
E
86°
E
88°
E
93°
E
94°
E
101°
E
95°
E
101°
E
94°
E
87°
E
87°
E
99°
E
101°
E
101°
E
98°
E
93°
E
88°
E
91°
E
91°
E

Daily Forecast

Date High Low Precip. Humidity
Today
Oct 20

Rain
81 °F
79 °F
100%
74%
Wednesday
Oct 21

Rain
80 °F
77 °F
91%
75%
Thursday
Oct 22

Rain
81 °F
76 °F
91%
69%
Friday
Oct 23

Rain
81 °F
76 °F
86%
66%
Saturday
Oct 24

Rain
81 °F
76 °F
36%
65%
Sunday
Oct 25

Rain
81 °F
75 °F
21%
65%
Monday
Oct 26

Clouds
82 °F
76 °F
13%
65%
Tuesday
Oct 27

Clear
82 °F
76 °F
12%
62%
Wednesday
Oct 28

Rain
82 °F
76 °F
45%
70%
Thursday
Oct 29

Rain
82 °F
77 °F
59%
72%
Friday
Oct 30

Rain
84 °F
76 °F
100%
67%
Saturday
Oct 31

Rain
75 °F
71 °F
87%
86%
Sunday
Nov 1

Rain
74 °F
73 °F
84%
78%
Monday
Nov 2

Rain
76 °F
74 °F
100%
81%
Tuesday
Nov 3

Rain
74 °F
71 °F
100%
93%
Wednesday
Nov 4

Rain
79 °F
68 °F
90%
65%


Temperature 8-14 Day Outlook



Precipitation 8-14 Day Outlook




Quick Links
Daytona Beach News
Daytona Beach Photos
Daytona Beach Videos




About Us
Contact Us
Site Map
Search Site
Advertise With Us
   
Daytona.USCoast.info
THE DAYTONA BEACH WEBSITE

Copyright 2020, Coastal Town
Privacy    |    Legal